This demonstration page uses our WeatherBlox Daily Observations layout. Learn more.

Left ArrowRight Arrow

40.97296, -117.73568

Hourly Observations for September 1, 2022

Temp ( °F °C ) Dew Point ( °F °C ) Humidity (%) Winds ( mph kmh ) Pressure ( in mb ) Visibility ( mi km ) Precip ( " mm )
12:56 am 00:56 Clear 58 14.4 31 -0.6 36 36 S 9 15 29.98 1015 10 16 0.00 0.00
1:56 am 01:56 Clear 53 11.7 32 0 44 44 S 7 11 30.03 1017 10 16 0.00 0.00
2:56 am 02:56 Clear 53 11.7 30 -1.1 41 41 S 10 17 29.97 1015 10 16 0.00 0.00
3:56 am 03:56 Clear 51 10.6 32 0 48 48 SSE 7 11 29.98 1015 10 16 0.00 0.00
4:56 am 04:56 Clear 51 10.6 29 -1.7 42 42 SSE 9 15 29.98 1015 10 16 0.00 0.00
5:56 am 05:56 Clear 48 8.9 30 -1.1 49 49 Calm 30.01 1016 10 16 0.00 0.00
6:56 am 06:56 Sunny 50 10 27 -2.8 40 40 Calm 30.03 1017 10 16 0.00 0.00
7:56 am 07:56 Sunny 66 18.9 28 -2.2 24 24 Calm 30.03 1017 10 16 0.00 0.00
8:56 am 08:56 Sunny 76 24.4 29 -1.7 18 18 Calm 30.02 1017 10 16 0.00 0.00
9:56 am 09:56 Sunny 83 28.3 28 -2.2 14 14 E 3 6 30.01 1016 10 16 0.00 0.00
10:56 am 10:56 Sunny 90 32.2 27 -2.8 10 10 N 5 7 29.98 1015 10 16 0.00 0.00
11:56 am 11:56 Sunny 94 34.4 20 -6.7 7 7 NE 9 15 29.97 1015 10 16 0.00 0.00
12:56 pm 12:56 Sunny 96 35.6 22 -5.6 7 7 VRB 3 6 29.95 1014 10 16 0.00 0.00
1:56 pm 13:56 Sunny 98 36.7 24 -4.4 7 7 Calm 29.94 1014 10 16 0.00 0.00
2:56 pm 14:56 Sunny 99 37.2 25 -3.9 7 7 E 6 9 29.91 1013 10 16 0.00 0.00
3:56 pm 15:56 Sunny 100 37.8 26 -3.3 7 7 VRB 7 11 29.89 1012 10 16 0.00 0.00
4:56 pm 16:56 Sunny 99 37.2 25 -3.9 7 7 NNW 8 13 29.88 1012 10 16 0.00 0.00
5:56 pm 17:56 Sunny 98 36.7 26 -3.3 8 8 NW 7 11 29.88 1012 10 16 0.00 0.00
6:56 pm 18:56 Sunny 94 34.4 27 -2.8 9 9 N 5 7 29.88 1012 10 16 0.00 0.00
7:56 pm 19:56 Clear 80 26.7 28 -2.2 15 15 Calm 29.87 1012 10 16 0.00 0.00
8:56 pm 20:56 Clear 70 21.1 24 -4.4 18 18 W 5 7 29.89 1012 10 16 0.00 0.00
9:56 pm 21:56 Clear 68 20 25 -3.9 20 20 NNW 5 7 29.89 1012 10 16 0.00 0.00
10:56 pm 22:56 Clear 65 18.3 25 -3.9 22 22 NNW 5 7 29.88 1012 10 16 0.00 0.00
11:56 pm 23:56 Clear 59 15 29 -1.7 32 32 VRB 6 9 29.89 1012 10 16 0.00 0.00

Powered by AerisWeather